User: anonymous   Login
Location: B?dargowo
(53.3916°N, 14.4413°E)
Time: 14:00:56
(UTC+00:00)
Language:

Cosmos 540 - Orbit

View from above orbital plane
View from above orbital plane
View from above satellite
View from above satellite

Ground track
Ground track

The orbit data is extracted from the following two-line orbital elements,

1 06323U 72104A   25118.64825715  .00000298  00000-0  10841-3 0  9999
2 06323  74.0786 140.3465 0018530 215.9273 144.0636 14.37322100739452
Epoch (UTC): 28 April 2025 15:33:29
Eccentricity: 0.0018530
inclination: 74.0786°
perigee height: 754 km
apogee height: 780 km
right ascension of ascending node: 140.3465°
argument of perigee: 215.9273°
revolutions per day: 14.37322100
mean anomaly at epoch: 144.0636°
orbit number at epoch: 73945

The dashed part of the orbit path shows where the satellite is in the earth's shadow,  

DLR